User: anonymous   Login
Location: Caltech
(34.1382°N, 118.1253°W)
Time: 03:32:34
(UTC-07:00)
Language:

Gbstr 26 Del rocket - Orbit

View from above orbital plane
View from above orbital plane
View from above satellite
View from above satellite

Ground track
Ground track

The orbit data is extracted from the following two-line orbital elements,

1 25876U 99041E   17147.90952064 -.00000097 +00000-0 +23803-4 0  9993
2 25876 051.7678 036.8752 0531642 329.0243 028.0306 14.04055502911757
Epoch (UTC): 27 May 2017 21:49:42
Eccentricity: 0.0531642
inclination: 51.7678°
perigee height: 494 km
apogee height: 1265 km
right ascension of ascending node: 36.8752°
argument of perigee: 329.0243°
revolutions per day: 14.04055502
mean anomaly at epoch: 28.0306°
orbit number at epoch: 91175

The dashed part of the orbit path shows where the satellite is in the earth's shadow,  

DLR